www.pogodaiklimat.ru

Погода и климат >> Архив погоды >> Египет >> Луксор


АРХИВ ПОГОДЫ в Луксоре

Время (UTC), дата Ветер
(напр.,м/с)
 
Видим.   Явления Облачность Т
(С)
Тd
(С)
f
(%)
Тe
(С)
Тes
(С)
Комфортность P
(гПа)
Po
(гПа)
Тmin
(С)
Tmax
(С)
R
(мм)
R24
(мм)
S
(см)
03 9.09 штиль 0 10 км ясно +26.6 +18.2 60 +31 +31 душно 1007.6 996.3
06 9.09 штиль 0 6000 м мгла ясно +29.9 +19.6 54 +36 +44 очень
душно
1008.3 997.1 +25.1
09 9.09 СЗ 4 10 км ясно +33.8 +17.9 39 +38 +50 очень
душно
1006.8 995.8
12 9.09 С 3 10 км ясно +36.6 +18.1 34 +40 +52 опасность
солнечного
удара
1004.6 993.7
15 9.09 З 5 10 км ясно +36.3 +17.5 33 +40 +40 очень
душно
1004.0 993.1
18 9.09 З 3 10 км ясно +31.9 +16.7 40 +35 +35 очень
душно
1005.5 994.4 +38.3
21 9.09 ЮЗ 1 10 км ясно +29.8 +17.1 46 +33 +33 душно 1007.1 995.9
00 10.09 ЮЗ 1 10 км ясно +27.4 +16.7 52 +31 +31 душно 1006.6 995.3
03 10.09 Ю 1 10 км ясно +25.9 +15.9 54 +29 +29 душно 1007.7 996.4
06 10.09 штиль 0 10 км ясно +29.2 +17.1 48 +33 +41 очень
душно
1008.6 997.4 +25.5
09 10.09 З 4 10 км ясно +34.1 +17.6 38 +38 +50 очень
душно
1007.9 996.9
12 10.09 З 5 10 км ясно +37.6 +14.8 26 +39 +46 очень
душно
1005.9 995.0
15 10.09 СЗ 3 10 км ясно +37.4 +14.7 26 +38 +39 душно 1005.3 994.4
18 10.09 ЮЗ 3 10 км ясно +32.2 +13.9 33 +34 +34 душно 1007.0 995.9 +38.2
21 10.09 ЮЗ 1 10 км ясно +29.2 +15.2 43 +32 +32 душно 1008.5 997.3
00 11.09 ЮВ 2 6000 м мгла ясно +27.0 +14.0 45 +29 +29 жарко 1008.3 997.0
03 11.09 Ю 1 6000 м мгла ясно +25.3 +14.5 51 +28 +28 жарко 1009.1 997.7
09 11.09 С 2 10 км ясно +34.7 +17.0 35 +38 +57 опасность
солнечного
удара
1010.0 999.0
12 11.09 Ю 2 10 км ясно +38.2 +15.7 27 +40 +53 опасность
солнечного
удара
1007.5 996.6
15 11.09 СЗ 2 10 км ясно +38.3 +16.2 27 +40 +41 очень
душно
1006.9 996.0
18 11.09 ЮЗ 2 10 км ясно +32.1 +13.4 32 +33 +33 жарко 1008.4 997.3 +39.1
21 11.09 штиль 0 10 км ясно +29.2 +13.4 38 +31 +31 жарко 1010.0 998.8
00 12.09 штиль 0 10 км ясно +26.8 +14.5 47 +29 +29 жарко 1008.3 997.0
03 12.09 штиль 0 10 км ясно +25.3 +15.0 53 +28 +28 жарко 1009.5 998.1
06 12.09 штиль 0 10 км ясно +29.1 +17.0 48 +33 +40 очень
душно
1010.4 999.2 +23.7
09 12.09 З 1 10 км ясно +34.8 +16.4 33 +37 +58 опасность
солнечного
удара
1010.0 999.0
12 12.09 С 1 10 км ясно +39.0 +16.0 26 +41 +56 опасность
перегрева
1007.3 996.4
15 12.09 З 3 10 км ясно +39.0 +16.0 26 +41 +42 опасность
перегрева
1006.2 995.4
21 12.09 Ю 2 10 км ясно +31.0 +13.0 33 +32 +32 жарко 1008.1 996.9
00 13.09 штиль 0 10 км ясно +28.1 +12.0 37 +29 +29 жарко 1008.1 996.8
03 13.09 Ю 1 5000 м мгла ясно +25.2 +11.9 43 +27 +27 жарко 1008.2 996.8
06 13.09 ЮВ 2 6000 м мгла ясно +29.2 +16.4 46 +33 +39 очень
душно
1009.1 997.9 +24.9
09 13.09 С 4 10 км ясно +33.8 +16.8 36 +37 +48 очень
душно
1008.2 997.1
12 13.09 З 3 10 км ясно +38.3 +16.0 27 +40 +51 опасность
солнечного
удара
1005.5 994.6
18 13.09 штиль 0 10 км ясно +32.6 +16.6 38 +36 +36 очень
душно
1006.2 995.1 +39.7
21 13.09 ЮВ 3 10 км ясно +30.7 +15.9 41 +34 +34 очень
душно
1007.4 996.2
00 14.09 С 2 10 км ясно +28.6 +17.5 51 +33 +33 очень
душно
1007.2 996.0
03 14.09 ЮЗ 2 10 км ясно +24.8 +17.5 64 +29 +29 душно 1007.2 995.8
06 14.09 С 4 10 км ясно +29.6 +18.4 51 +34 +38 очень
душно
1008.8 997.6 +24.5
09 14.09 С 3 10 км ясно +33.1 +18.1 41 +37 +52 опасность
солнечного
удара
1008.5 997.4
12 15.09 С 4 10 км ясно +35.2 +14.3 29 +36 +45 очень
жарко
1008.2 997.2
15 15.09 СЗ 3 10 км ясно +34.4 +13.8 29 +35 +36 очень
жарко
1008.2 997.2
18 15.09 З 2 10 км ясно +30.4 +15.8 41 +33 +33 душно 1009.1 997.9 +35.6
21 15.09 ЮЗ 2 6000 м мгла ясно +28.0 +15.2 46 +31 +31 душно 1010.5 999.2

 

Местоположение метеостанции Луксор (Египет): широта 25.67 долгота 32.70 высота над уровнем моря 99 м.

В архиве по умолчанию представлена погода в Луксоре за последнюю неделю. Архивные данные за месяц целиком и за предыдущие месяцы, начиная с января 2011 года, Вы можете получить, выбрав интересующий диапазон дат из раскрывающегося списка и нажав кнопку "Ввод!".


*Определитесь, кто Вы:
робот инопланетянин человек

Внимание! Время в таблицах - всемирное. Для получения местного времени необходимо прибавить поправку, которая равна 2 ч.

Смотрите также архив погоды в соседних городах и на ближайших метеорологических станциях:

Погода в Университете South Of Valley (Египет) (59 км)
Погода в Эль-Кусейре (Египет) (154 км)
Погода в Асуане (Египет) (189 км)
Погода в Хургаде (Египет) (193 км)
Погода в Харге (Египет) (219 км)
Погода в Асьюте (Египет) (227 км)
Погода в Эль-Торе (Египет) (299 км)
Погода в Миня (Египет) (332 км)
Погода в Абу Редис (Египет) (362 км)
Погода в Дахле (Египет) (372 км)

Пояснения к столбцам:

Ветер - указаны скорость ветра в м/с - средняя за 10 мин, порывы в срок и между сроками (в фигурных скобках) и направление, откуда дует ветер: С - северный, СВ - северо-восточный, В - восточный, ЮВ - юго-восточный, Ю - южный, ЮЗ - юго-западный, З - западный, СЗ - северо-западный.
Видимость - горизонтальная дальность видимости в метрах или километрах. При видимости от 1 до 10 км при отсутствии осадков обычно наблюдается дымка, при ухудшении видимости до 1 км и менее - туман. В сухую погоду видимость может ухудшаться дымом, пылью или мглою.
Явления - указаны атмосферные явления, наблюдавшиеся в срок или в последний час перед сроком; фигурными скобками обозначены явления, наблюдавшиеся между сроками (за 1-3 часа до срока); квадратными скобками обозначены град или гололедные отложения с указанием их диаметра в мм.
Облачность - указаны через наклонную черту общая и нижняя облачность в баллах и высота нижней границы облаков в метрах; квадратными скобками обозначены формы облаков: Ci - перистые, Cs - перисто-слоистые, Cc - перисто-кучевые, Ac - высококучевые, As - высокослоистые, Sc - слоисто-кучевые, Ns - слоисто-дождевые, Cu - кучевые, Cb - кучево-дождевые. Подробнее классификацию облаков см. в Атласе облаков (PDF).
T - Температура воздуха - температура, измеренная на высоте 2 м над землей.
Td - Температура точки росы - температура, при понижении до которой содержащийся в воздухе водяной пар достигнет насыщения.
f - Относительная влажность воздуха - влажноcть воздуха, измеренная на высоте 2 м над землей.
Te - Эффективная температура - температура, которую ощущает одетый по сезону человек в тени. Характеристика душности погоды. При расчете учитывается влияние влажности воздуха и скорости ветра на теплоощущения человека.
Tes - Эффективная температура на солнце - температура, которую ощущает человек, с поправкой на солнечный нагрев. Характеристика знойности погоды. Зависит от высоты солнца над горизонтом, облачности и скорости ветра. Ночью, в пасмурную погоду, а также при ветре 12 м/с и более поправка равна нулю.
P - Атмосферное давление - приведенное к уровню моря атмосферное давление.
Po - Атмосферное давление - измеренное на уровне метеостанции атмосферное давление.
Tmin - Минимальная температура - минимум температуры воздуха на высоте 2 м над землей.
Tmax - Максимальная температура - максимум температуры воздуха на высоте 2 м над землей.
R - Количество осадков - Количество выпавших осадков за период времени, мм. При наведении курсора мыши на число - период времени, за который выпало указанное количество осадков.
R24 - Количество осадков - Количество выпавших осадков за 24 часа, мм.
S - Снежный покров - Высота снежного покрова, см. При наведении курсора мыши на число - состояние снежного покрова и степень покрытия местности в баллах.